Estación meteorológica de Mataró (Maresme, Maresme)

Consulta los datos en tiempo real de la estación meteorológica de Mataró





Hora UTC 06:05
Temperatura 23.7 ºC
Suelo 15 cm 23.3 ºC
Humedad 72.8 %
Presión 1019.2 hPa
Pluja 0.0 mm
Velocidad viento 11.9 km/h
Dirección viento NNW
Radiación solar 99.3 W/m²

Webcam

Datos diarios 2026-09-01



Hora UTC (invierno +1h; verano +2h)
Temperatura (ºC) Humedad (%) Presión (hPa) Velocidad viento (km/h) Precipitación (mm) Radiación solar (W/m²)
Hora UTC Aire Suelo 15 cm Humedad Presión Vel. Dir. Vel. Max Dir. Intent. máx 5 min. Rad. Sol.
00:05 23.0 21.6 77.4 1020.2 7.1 NNW 7.1 NNW 0.0 0.1
00:10 22.9 21.6 77.6 1020.2 5.8 NW 8.1 NW 0.0 0.1
00:15 22.9 21.5 78.0 1020.2 6.5 NNW 8.5 NW 0.0 0.1
00:20 22.9 21.5 77.8 1020.2 7.0 NNW 8.5 NNW 0.0 0.1
00:25 22.9 21.5 78.1 1020.2 7.7 NNW 8.8 NNW 0.0 0.1
00:30 23.1 21.6 77.7 1020.1 7.8 NNW 9.9 NNW 0.0 0.1
00:35 23.1 21.7 77.2 1020.2 7.1 NNW 8.8 NW 0.0 0.1
00:40 23.1 21.8 77.3 1020.2 7.5 NNW 9.5 NNW 0.0 0.1
00:45 23.1 21.9 77.7 1020.2 8.1 NNW 10.6 NNW 0.0 0.1
00:50 23.1 21.9 77.6 1020.1 7.0 NW 10.6 NW 0.0 0.1
00:55 23.1 21.9 78.0 1020.1 4.4 NW 7.1 WNW 0.0 0.1
01:00 23.0 21.8 78.0 1020.1 5.5 NNW 8.5 NNW 0.0 0.1
01:05 22.9 21.6 78.2 1020.1 6.2 NW 7.8 WNW 0.0 0.1
01:10 22.9 21.5 77.7 1020.1 5.6 NW 8.1 NW 0.0 0.1
01:15 22.9 21.4 76.9 1020.1 7.0 NNW 9.2 NW 0.0 0.1
01:20 22.8 21.4 76.4 1020.0 7.9 NW 10.6 NNW 0.0 0.1
01:25 23.0 21.5 76.3 1020.0 10.1 NNW 12.4 NNW 0.0 0.1
01:30 23.2 21.7 75.7 1020.0 9.2 NNW 12.0 NNW 0.0 0.1
01:35 23.3 21.9 75.2 1020.0 8.5 NNW 12.7 NNW 0.0 0.1
01:40 23.4 22.1 75.2 1020.0 10.1 NNW 12.7 NNW 0.0 0.1
01:45 23.4 22.2 76.0 1020.0 9.6 NNW 15.2 NW 0.0 0.1
01:50 23.4 22.3 77.0 1019.9 10.8 NNW 14.1 NNW 0.0 0.1
01:55 23.4 22.4 77.4 1019.9 11.2 NNW 16.2 NNW 0.0 0.1
02:00 23.4 22.5 77.6 1020.0 9.9 NNW 13.4 NNW 0.0 0.1
02:05 23.4 22.5 77.9 1019.9 10.5 NNW 14.5 NNW 0.0 0.1
02:10 23.3 22.5 78.6 1019.8 10.0 NNW 13.1 NNW 0.0 0.1
02:15 23.3 22.5 78.4 1019.8 8.7 NNW 12.0 NW 0.0 0.1
02:20 23.3 22.5 78.0 1019.8 8.5 NNW 12.0 NNW 0.0 0.1
02:25 23.3 22.4 77.9 1019.8 9.2 NNW 14.5 NNW 0.0 0.1
02:30 23.4 22.4 77.5 1019.7 9.8 NNW 13.1 NNW 0.0 0.1
02:35 23.4 22.4 77.0 1019.6 8.3 NNW 12.4 NNW 0.0 0.1
02:40 23.4 22.5 77.0 1019.5 8.8 NNW 11.6 NNW 0.0 0.1
02:45 23.5 22.5 77.0 1019.5 9.1 NNW 12.7 NNW 0.0 0.1
02:50 23.5 22.5 77.5 1019.5 9.4 NNW 12.7 NNW 0.0 0.1
02:55 23.4 22.5 78.3 1019.5 9.6 NNW 13.4 NNW 0.0 0.1
03:00 23.4 22.4 79.3 1019.4 9.1 NNW 12.0 N 0.0 0.1
03:05 23.3 22.4 80.2 1019.4 10.2 NNW 13.8 NNW 0.0 0.1
03:10 23.3 22.4 80.8 1019.4 10.5 NNW 13.8 NNW 0.0 0.1
03:15 23.3 22.4 81.1 1019.4 10.8 NNW 15.2 NNW 0.0 0.1
03:20 23.3 22.4 81.3 1019.4 9.9 NNW 13.8 NNW 0.0 0.1
03:25 23.2 22.3 81.5 1019.4 10.6 NNW 13.8 NNW 0.0 0.1
03:30 23.2 22.3 81.7 1019.3 9.6 NNW 13.8 NNW 0.0 0.1
03:35 23.1 22.3 82.1 1019.3 10.4 NNW 14.1 NNW 0.0 0.1
03:40 23.1 22.3 81.9 1019.2 11.3 NNW 16.2 NNW 0.0 0.1
03:45 23.2 22.3 81.6 1019.2 11.9 NNW 15.5 NNW 0.0 0.1
03:50 23.2 22.3 81.1 1019.1 12.6 NNW 16.2 NW 0.0 0.1
03:55 23.3 22.4 80.2 1019.1 12.2 NNW 17.3 NNW 0.0 0.1
04:00 23.3 22.4 79.5 1019.0 12.7 NNW 16.6 NNW 0.0 0.1
04:05 23.3 22.4 79.0 1019.0 12.6 NNW 16.6 NNW 0.0 0.1
04:10 23.3 22.4 78.8 1019.1 11.4 NNW 15.2 NNW 0.0 0.1
04:15 23.3 22.4 78.7 1019.1 11.3 NNW 14.5 NNW 0.0 0.1
04:20 23.2 22.4 78.5 1019.1 10.2 NNW 13.8 NNW 0.0 0.1
04:25 23.2 22.4 78.3 1019.0 11.5 NNW 14.8 NW 0.0 0.1
04:30 23.1 22.3 78.0 1019.0 11.2 NNW 15.9 NNW 0.0 0.1
04:35 23.2 22.3 77.9 1019.1 10.2 NNW 13.8 NNW 0.0 0.1
04:40 23.2 22.3 78.0 1019.1 10.6 NNW 13.8 NNW 0.0 0.1
04:45 23.2 22.3 78.1 1019.0 10.2 NNW 13.8 NW 0.0 0.1
04:50 23.2 22.2 78.2 1019.0 9.5 NNW 13.1 NNW 0.0 0.1
04:55 23.2 22.2 78.2 1019.0 10.1 NNW 13.4 NNW 0.0 0.2
05:00 23.2 22.2 78.1 1019.0 10.0 NNW 14.1 NNW 0.0 0.6
05:05 23.1 22.2 78.2 1019.0 9.6 NNW 12.4 NNW 0.0 1.3
05:10 23.1 22.1 78.0 1019.0 9.6 NNW 13.4 NW 0.0 2.4
05:15 23.1 22.2 78.1 1019.1 10.0 NNW 14.1 NNW 0.0 4.0
05:20 23.1 22.2 78.2 1019.0 10.5 NNW 14.8 NNW 0.0 6.1
05:25 23.1 22.2 78.3 1019.1 10.6 NNW 14.8 NNW 0.0 8.8
05:30 23.1 22.3 78.0 1019.1 10.8 NNW 14.8 NNW 0.0 11.5
05:35 23.1 22.3 77.6 1019.1 11.4 NNW 14.5 NNW 0.0 14.3
05:40 23.2 22.4 76.9 1019.0 10.8 NNW 14.1 NNW 0.0 17.1
05:45 23.3 22.5 76.2 1019.1 10.1 NNW 14.8 NNW 0.0 20.0
05:50 23.4 22.7 75.5 1019.1 11.9 NNW 16.2 N 0.0 22.8
05:55 23.5 22.8 74.6 1019.1 11.3 NNW 15.5 NNW 0.0 25.3
06:00 23.6 23.0 73.6 1019.1 11.3 NNW 16.6 NNW 0.0 62.1
06:05 23.7 23.3 72.8 1019.2 11.9 NNW 14.8 NNW 0.0 99.3
Máxima 23.7 23.3 82.1 1020.2 12.7 NNW 17.3 NNW 0.0 99.3
Mínima 20 20 72.8 1019.0
Total 0.0